Skip Page Navigation
NASA JPL Caltech
NASA Logo - Jet Propulsion Laboratory + View the NASA Portal
+ Near-Earth Object (NEO) Program
Search JPL
JPL Home Earth Solar System Stars & Galaxies Technology
JPL Solar System Dynamics
BODIES ORBITS EPHEMERIDES TOOLS PHYSICAL DATA DISCOVERY FAQ SITE MAP
JPL Small-Body Database Browser
Search: [ help ]  
6071 Sakitama (1992 AS1)
Classification: Main-belt Asteroid          SPK-ID: 2006071
Ephemeris | Orbit Diagram | Orbital Elements | Physical Parameters | Discovery Circumstances ]

[ show orbit diagram ]
Orbital Elements at Epoch 2457000.5 (2014-Dec-09.0) TDB
Reference: JPL 14 (heliocentric ecliptic J2000)
 Element Value Uncertainty (1-sigma)   Units 
e .1115399570982191 4.6679e-08  
a 2.707394692617041 1.9311e-08 AU
q 2.405412004754591 1.2699e-07 AU
i 11.73214979399697 6.0786e-06 deg
node 152.4640152326436 2.7442e-05 deg
peri 277.6307659220313 3.9714e-05 deg
M 99.35879647843622 3.0701e-05 deg
tp 2456551.413905027360
(2013-Sep-15.91390503)
0.00013761 JED
period 1627.143241667964
4.45
1.7409e-05
4.766e-08
d
yr
n .2212466553534454 2.3671e-09 deg/d
Q 3.009377380479493 2.1465e-08 AU
  Orbit Determination Parameters
   # obs. used (total)      1094  
   data-arc span      17010 days (46.57 yr)  
   first obs. used      1968-10-23  
   last obs. used      2015-05-20  
   planetary ephem.      DE431  
   SB-pert. ephem.      SB431-BIG16  
   condition code      0  
   fit RMS      .48295  
   data source      ORB  
   producer      Otto Matic  
   solution date      2015-Jun-04 15:53:37  

Additional Information
 Earth MOID = 1.45341 AU 
 T_jup = 3.326 
[ show covariance matrix ]

Ephemeris | Orbit Diagram | Orbital Elements | Physical Parameters | Discovery Circumstances ]

Physical Parameter Table
Parameter Symbol Value Units Sigma Reference Notes
absolute magnitude H 12.1 mag n/a MPO279578  
rotation period rot_per 4.437 h n/a LCDB (Rev. 2015-May); Warner et al., 2009 Published Reference List:
[Carbo, L.; Green, D.; Kragh, K.; Krotz, J.; et al. (2009) Minor Planet Bul. 36, 152-157.]
SMASSII spectral type spec_B S   n/a EAR-A-5-DDR-TAXONOMY-V4.0 based on a high-resolution spectrum by Xu et al. (1995) or Bus and Binzel (2002)

6071 Sakitama           Discovered 1992 Jan. 4 by T. Hioki and S. Hayakawa at Okutama.
Sakitama, a region of Gyoda city and from which Saitama prefecture takes its name, is known for its burial mounds, constructed from clay and rocks between the fourth and seventh centuries.
NOTE: some special characters may not display properly (any characters within {} are an attempt to place the proper accent above a character)
Reference: 19990928/MPCPages.arcLast Updated: 2010-06-11

Alternate Designations
 1992 AS1 = 1965 AM = 1968 UO1 = 1985 OS 
Ephemeris | Orbit Diagram | Orbital Elements | Physical Parameters | Discovery Circumstances ]
ABOUT SSD CREDITS/AWARDS PRIVACY/COPYRIGHT GLOSSARY LINKS
FirstGov 2015-Jul-03 20:18 UT
(server date/time)  
NASA Home Page
Site Manager:   Ryan S. Park
Webmaster  Alan B. Chamberlin